Location: Gleizolles
(44.4833°N, 6.7667°E)
Time: 17:32:30
(UTC+00:00)

A-11 Canister half - Visible Passes

Search period start: 18 January 2026 00:00
Search period end: 28 January 2026 00:00
Orbit: 1526 x 1682 km, 47.3° (Epoch: 17 January)

Date Brightness Start Highest point End Pass type
(mag) Time Alt. Az. Time Alt. Az. Time Alt. Az.
18 Jan 11.2 00:53:09 11° ENE 00:53:09 11° ENE 00:53:26 10° ENE visible
18 Jan 9.5 02:51:26 56° ENE 02:51:26 56° ENE 02:58:53 10° E visible
18 Jan 9.0 04:49:42 36° WNW 04:54:32 87° NNE 05:04:39 10° ESE visible
19 Jan 9.8 02:30:46 44° ENE 02:30:46 44° ENE 02:36:59 10° E visible
19 Jan 9.0 04:29:03 46° WNW 04:32:40 86° NNE 04:42:45 10° ESE visible
19 Jan 9.6 06:28:04 10° WNW 06:37:26 51° SW 06:47:01 10° SSE visible
20 Jan 10.2 02:10:07 35° ENE 02:10:07 35° ENE 02:15:05 10° ENE visible
20 Jan 9.0 04:08:24 58° WNW 04:10:47 85° NNE 04:20:52 10° ESE visible
20 Jan 9.5 06:06:41 12° WNW 06:15:37 53° SW 06:25:15 10° SE visible
21 Jan 10.5 01:49:29 27° ENE 01:49:29 27° ENE 01:53:12 10° ENE visible
21 Jan 8.9 03:47:46 73° NW 03:48:55 83° NNE 03:58:57 10° ESE visible
21 Jan 9.4 05:46:03 17° WNW 05:53:48 55° SW 06:03:28 10° SE visible
22 Jan 10.8 01:28:53 20° ENE 01:28:53 20° ENE 01:31:17 10° ENE visible
22 Jan 8.9 03:27:10 82° NNE 03:27:10 82° NNE 03:37:04 10° ESE visible
22 Jan 9.3 05:25:27 22° WNW 05:31:58 57° SW 05:41:42 10° SE visible
23 Jan 11.1 01:08:18 14° ENE 01:08:18 14° ENE 01:09:24 10° ENE visible
23 Jan 9.1 03:06:35 69° ENE 03:06:35 69° ENE 03:15:09 10° E visible
23 Jan 9.2 05:04:52 29° W 05:10:09 59° SW 05:19:54 10° SE visible
24 Jan 9.5 02:46:02 54° E 02:46:02 54° E 02:53:16 10° E visible
24 Jan 9.1 04:44:20 38° W 04:48:19 61° SW 04:58:07 10° SE visible
25 Jan 9.9 02:25:32 41° E 02:25:32 41° E 02:31:21 10° E visible
25 Jan 9.1 04:23:50 49° W 04:26:30 63° SSW 04:36:18 10° SE visible
25 Jan 10.3 06:23:11 10° W 06:30:13 23° SW 06:37:24 10° S visible
26 Jan 10.3 02:05:05 31° E 02:05:05 31° E 02:09:27 10° E visible
26 Jan 8.9 04:03:23 61° WSW 04:04:40 66° SSW 04:14:29 10° SE visible
26 Jan 10.2 06:01:41 11° W 06:08:28 24° SW 06:15:52 10° S visible
27 Jan 10.7 01:44:41 22° E 01:44:41 22° E 01:47:33 10° E visible
27 Jan 8.9 03:42:59 68° SSW 03:42:59 68° SSW 03:52:40 10° SE visible
27 Jan 10.1 05:41:17 16° W 05:46:41 25° SW 05:54:19 10° S visible
